Showing default

FLOCK 4BE 18, 60480

Orbit data source: Space-Track

FLOCK 4BE 18, 60480 is a payload satellite owned by Planet (US) in SSO that was launched on Fri, 16 Aug 2024 UTC via an FALCON 9 launch vehicle from the Air Force Western Test Range (AFWTR). Payload-class satellites include a variety of spacecraft equipped with specific instruments for various scientific and technological missions. These include communications satellites like Starlink; space stations such as the ISS; scientific satellites like the Hubble; Earth observation satellites from companies like Planet Labs, Umbra, and HawkEye 360; GPS; miniature CubeSats for education and research; and military/defense satellites.

Loading next visibility...
Identifier
60480, 2024-149N
Orbit
SSO
Country
Flag of USUS
Related business
Manufacturer
Planet
Mission
Operational Commercial Imaging
Bus & Motor
CUBESAT 3U, Unknown motor
Mass
5.7 kg wet, 5.7 kg dry
Launch date (UTC)
2024-08-16 (2 years ago)
Launch vehicle
FALCON 9
Launch site
Air Force Western Test Range (AFWTR)
Object type
Payload
Rocket body
Debris
Shape & HBR
Box + 2 Pan, 1.0 m
Radar Cross Section
0.072 m², Medium (>0.1 m² and < 1m²)

Expand to show TLE details & history
Last TLE update: 1 day ago

TLE from 1 day ago
0 FLOCK 4BE 18
1 60480U 24149N   26173.53215365  .00013151  00000-0  31037-3 0  9995
2 60480  97.3724 257.3181 0003364 212.6358 147.4682 15.41999865103139
Epoch: 2026-06-22T12:46Z
TLE epoch observation values (Epoch: 2026-06-22T12:46:18.075Z)
Latitude
0.00002°
Longitude
155.02606°
Altitude
445.263 km
Speed
7.644 km/s
True Right ascension
17h 09m 16s
True Declination
0° 00' 00"
Sunlit
Object was in full shadow at epoch
Visualization orbit readout
Latitude
Unknown
Longitude
Unknown
Altitude
Unknown
Speed
Unknown
Apparent Right ascension
Unknown
Apparent Declination
Unknown
Sunlit
N/A
Visualization observer readout
Local Sidereal Time
10:52:05
Azimuth
Unknown
Elevation
Unknown
Doppler factor
Unknown
Orbital elements
Apogee altitude
439.435 km
Perigee altitude
434.85 km
Semi-major axis
6,815.28 km
Eccentricity
0.00034
Inclination
97.3724°
RAAN
257.3181°
Arg. of periapsis
212.6358°
True anomaly
147.48892°
Mean anomaly
147.4682°
Eccentric anomaly
147.47856°
Mean motion
3.8576 °/min
Orbital period
93.32 mins
BSTAR
0.00031037
Loading maneuver chart data...
Computing Atmospheric mass density...
Loading historical data...
Loading historical data...
Loading historical data...
Loading historical data...
Loading historical data...
Loading historical data...
Loading historical data...

Documentation

Showing up to 5 results
|